CW9315 Weather Reports


time (UTC)temp
C
wind
direction
speed
KPH
gust
KPH
rain 1hr
cm
rain 24hr
cm
rain mn
cm
humidity
%
barometer
mb
20260502190057 19 250 3.2 0.0 0.00 0.00 0.00 25 1016.0
20260502184556 19 257 1.6 0.0 0.00 0.00 0.00 23 1016.2
20260502183104 19 232 1.6 0.0 0.00 0.00 0.00 23 1016.4
20260502181554 19 204 1.6 0.0 0.00 0.00 0.00 26 1016.5
20260502163050 16 347 0.0 0.0 0.00 0.00 0.00 32 1017.2
20260502161554 16 15 1.6 0.0 0.00 0.00 0.00 31 1017.1
20260502151528 14 144 0.0 0.0 0.00 0.00 0.00 35 1017.3
20260502123117 5 27 0.0 0.0 0.00 0.00 0.00 56 1016.9
20260502121600 5 27 0.0 0.0 0.00 0.00 0.00 55 1016.7
20260502120116 5 27 0.0 0.0 0.00 0.00 0.00 58 1016.7
20260502114604 5 27 0.0 0.0 0.00 0.00 0.00 58 1016.6
20260502113111 5 27 0.0 0.0 0.00 0.00 0.00 58 1016.7
20260502111556 5 27 0.0 0.0 0.00 0.00 0.00 65 1016.8
20260502110054 4 27 0.0 0.0 0.00 0.00 0.00 68 1016.9
20260502104553 4 27 0.0 0.0 0.00 0.00 0.00 68 1016.7
20260502103050 5 27 0.0 0.0 0.00 0.00 0.00 67 1016.7
20260502101548 5 27 0.0 0.0 0.00 0.00 0.00 66 1016.7
20260502071524 7 255 0.0 0.0 0.00 0.00 0.00 58 1016.1
20260502070025 7 255 0.0 0.0 0.00 0.00 0.00 60 1016.2
20260502064524 8 255 0.0 0.0 0.00 0.00 0.00 60 1016.2
20260502063020 8 255 0.0 0.0 0.00 0.00 0.00 59 1016.1
20260502061519 8 255 0.0 0.0 0.00 0.00 0.00 57 1016.1
20260502060014 9 255 0.0 0.0 0.00 0.00 0.00 55 1016.0
20260502054513 9 255 0.0 0.0 0.00 0.00 0.00 57 1015.7
20260502053012 10 255 0.0 0.0 0.00 0.00 0.00 57 1015.7
20260502051516 10 255 0.0 0.0 0.00 0.00 0.00 57 1015.6
20260502050011 10 255 0.0 0.0 0.00 0.00 0.00 58 1015.6
20260502044511 10 255 0.0 0.0 0.00 0.00 0.00 60 1015.6
20260502043011 10 255 0.0 0.0 0.00 0.00 0.00 59 1015.4
20260502041510 10 255 0.0 0.0 0.00 0.00 0.00 57 1015.2
20260502040010 11 255 0.0 0.0 0.00 0.00 0.00 55 1015.1
20260502034509 11 255 0.0 0.0 0.00 0.00 0.00 54 1015.0
20260502033009 12 255 0.0 0.0 0.00 0.00 0.00 52 1014.8
20260502031508 12 255 0.0 0.0 0.00 0.00 0.00 49 1014.6
20260502030008 13 255 0.0 0.0 0.00 0.00 0.00 47 1014.4
20260502024507 14 255 0.0 0.0 0.00 0.00 0.00 45 1014.3
20260502023010 15 255 0.0 0.0 0.00 0.00 0.00 44 1014.2
20260502021506 16 255 0.0 0.0 0.00 0.00 0.00 42 1014.2
20260502020006 16 259 0.0 0.0 0.00 0.00 0.00 38 1014.0
20260502014508 17 250 0.0 0.0 0.00 0.00 0.00 36 1014.0
20260502013009 17 297 0.0 0.0 0.00 0.00 0.00 26 1013.9
20260502011504 17 331 0.0 0.0 0.00 0.00 0.00 26 1013.9
20260502010008 17 310 1.6 0.0 0.00 0.00 0.00 28 1014.0
20260502004506 18 321 0.0 0.0 0.00 0.00 0.00 27 1014.0
20260502003002 18 294 1.6 0.0 0.00 0.00 0.00 25 1014.0
20260502001604 18 296 0.0 0.0 0.00 0.00 0.00 26 1014.1
20260502000112 18 290 1.6 0.0 0.00 0.00 0.00 25 1014.1
20260501234602 19 281 0.0 0.0 0.00 0.00 0.00 26 1014.1
20260501233100 18 288 1.6 0.0 0.00 0.00 0.00 27 1014.2
20260501231557 18 294 3.2 0.0 0.00 0.00 0.00 27 1014.4
20260501230101 18 296 1.6 0.0 0.00 0.00 0.00 28 1014.6
20260501224552 18 295 1.6 0.0 0.00 0.00 0.00 28 1014.5
20260501223050 18 307 1.6 0.0 0.00 0.00 0.00 29 1014.9
20260501221555 18 339 3.2 0.0 0.00 0.00 0.00 27 1015.1
20260501220048 18 30 3.2 0.0 0.00 0.00 0.00 28 1015.3
20260501214552 18 268 1.6 0.0 0.00 0.00 0.00 29 1015.4
20260501213050 18 5 1.6 0.0 0.00 0.00 0.00 28 1015.6
20260501211546 18 279 1.6 0.0 0.00 0.00 0.00 30 1015.7
20260501210045 18 355 1.6 0.0 0.00 0.00 0.00 26 1015.9
20260501204543 17 348 4.8 0.0 0.00 0.00 0.00 29 1015.9
20260501203051 17 360 1.6 0.0 0.00 0.00 0.00 29 1015.9
20260501201547 17 343 3.2 0.0 0.00 0.00 0.00 29 1015.9
20260501200042 17 296 1.6 0.0 0.00 0.00 0.00 28 1016.0
20260501194541 17 74 3.2 0.0 0.00 0.00 0.00 22 1016.1
20260501193041 17 17 6.4 0.0 0.00 0.00 0.00 22 1016.3
20260501191550 17 29 1.6 0.0 0.00 0.00 0.00 26 1016.4